Tracking 20721 objects as of 1-Jun-2020
HD Live streaming from Space Station
objects crossing your sky now

SL-12 R/B(2)

Track SL-12 R/B(2) now!


NORAD ID: 24897
Int'l Code: 1997-041D
Perigee: 34,363.8 km
Apogee: 37,380.5 km
Inclination: 14.2 °
Period: 1,440.1 minutes
Semi major axis: 42243 km
RCS: 1 m2 (large)
Launch date: August 14, 1997
Source: Commonwealth of Independent States (former USSR) (CIS)
Launch site: TYURATAM MISSILE AND SPACE COMPLEX (TTMTR)

Note: This is a ROCKET BODY
aabbcc
Your satellite tracking list
Your tracking list is empty




NASA's NSSDC Master Catalog

Two Line Element Set (TLE):
1 24897U 97041D   20151.60054003 -.00000154 +00000-0 +00000-0 0  9999
2 24897 014.2159 015.3136 0357063 246.7757 100.5903 00.99992702083269
Source of the keplerian elements: AFSPC